Regional Weather Roundup
Issued by NWS Green Bay, WI

Home | Current Version | Previous Version | Text Only | Print | Product List | Glossary On
Versions: 1 2 3 4 5 6 7 8 9 10 11 12 13 14 15 16 17 18 19 20 21 22 23 24 25 26 27 28 29 30 31 32 33 34 35 36 37 38 39 40 41 42 43 44 45 46 47 48 49 50
000
ASUS43 KGRB 250159
RWRGRB

NORTH-CENTRAL AND NORTHEAST WISCONSIN REGIONAL WEATHER ROUNDUP
NATIONAL WEATHER SERVICE GREEN BAY WI
800 PM CST SAT JAN 24 2015

WIZ005-009-010>012-018-019-250300-
NORTH CENTRAL WISCONSIN

CITY           SKY/WX    TMP DP  RH WIND       PRES   REMARKS
IRONWOOD       CLOUDY    18  14  86 NE13      29.71R WCI   4
MANITOWISH WTR NOT AVBL
ARBOR VITAE    NOT AVBL
EAGLE RIVER    NOT AVBL
LAND O LAKES   NOT AVBL
RHINELANDER    CLOUDY    26  21  81 NE12      29.66R
PHILLIPS       NOT AVBL
ANTIGO         NOT AVBL
TOMAHAWK       NOT AVBL
MERRILL        NOT AVBL
$$

WIZ013-073-250300-
NORTHEAST WISCONSIN

CITY           SKY/WX    TMP DP  RH WIND       PRES   REMARKS
IRON MOUNTAIN  PTCLDY    21  15  78 N10       29.69R WCI  10
MARINETTE      CLOUDY    27  18  69 NE13G20   29.71R
$$

WIZ017-030-035>037-045-250300-
CENTRAL WISCONSIN

CITY           SKY/WX    TMP DP  RH WIND       PRES   REMARKS
MEDFORD        NOT AVBL
WAUSAU         CLOUDY    34  30  85 CALM      29.62R
MOSINEE        MOCLDY    34  32  93 CALM      29.64R
MARSHFIELD     CLOUDY    33  30  88 CALM      29.63R
WISC RAPIDS    CLOUDY    31  28  89 CALM      29.66R
STEVENS POINT  NOT AVBL
WAUPACA        NOT AVBL
SHAWANO        NOT AVBL
CLINTONVILLE   NOT AVBL
$$

WIZ038-039-048-051-250300-
FOX VALLEY

CITY           SKY/WX    TMP DP  RH WIND       PRES   REMARKS
NWS GREEN BAY  CLOUDY    29  25  85 NE22G30   29.69R
APPLETON       CLOUDY    34  32  93 VRB5      29.64S
OSHKOSH        FLURRIES  33  30  88 SW3       29.66R
FOND DU LAC    CLOUDY    34  30  85 MISG      29.66R
$$

WIZ022-050-052-250300-
EAST CENTRAL WISCONSIN

CITY           SKY/WX    TMP DP  RH WIND       PRES   REMARKS
STURGEON BAY   CLOUDY    25  19  80 NE15G22   29.73R
MANITOWOC      MIX PCPN  32  30  93 NE7G18    29.68R
SHEBOYGAN      CLOUDY    34  30  85 NW5       29.65R
$$

LMZ563-521-522-541>543-250300-
LAKESHORE

STATION/POSITION TIME  TEMP    WIND        PRES    VSBY  WAVE
                       AIR SEA DIR/SP/G                  HT/PER
                 (UTC) (F)     (DEG/KT/KT) (MB)    (MI)  (FT/S)
SHEBOYGAN LKSHOR 0100   36     290/  4/  5 1004.9R
KEWAUNEE LKSHORE 0100   30      40/ 19/ 22 1004.5R
NORTHPORT PIER   0100   25     360/ 21/ 25 1006.4R
SISTER BAY LKSHO 0100   24      10/ 18/ 23   N/A
CHAMBERS ISLAND  0100   25      10/ 18/ 21 1006.4R
MENOMINEE LKSHOR 0100   26      30/ 20/ 22 1006.9R
$$



USA.gov is the U.S. government's official web portal to all federal, state and local government web resources and services.